Skip Page Navigation
NASA JPL Caltech
NASA Logo - Jet Propulsion Laboratory + View the NASA Portal
+ Center for Near-Earth Object Studies
JPL Home Earth Solar System Stars & Galaxies Technology
JPL Solar System Dynamics
BODIES ORBITS EPHEMERIDES TOOLS PHYSICAL DATA DISCOVERY FAQ SITE MAP
JPL Small-Body Database Browser
Search: [ help ]  
413757 (2006 DM103)
Classification: Main-belt Asteroid          SPK-ID: 2413757
Ephemeris | Orbit Diagram | Orbital Elements | Mission Design | Physical Parameters | Discovery Circumstances ]

[ show orbit diagram ]
Orbital Elements at Epoch 2459000.5 (2020-May-31.0) TDB
Reference: JPL 12 (heliocentric ecliptic J2000)
 Element Value Uncertainty (1-sigma)   Units 
e .1275231040178467 9.6312e-08  
a 2.234178741989402 2.6197e-08 au
q 1.949269333880226 2.2223e-07 au
i 1.322329736143577 1.07e-05 deg
node 142.8472643654963 0.00038942 deg
peri 181.2205853718963 0.00039247 deg
M 306.2694603717926 4.065e-05 deg
tp 2459182.551390853681
(2020-Nov-29.05139085)
0.00013631 TDB
period 1219.762562610085
3.34
2.1454e-05
5.874e-08
d
yr
n .2951394074840771 5.191e-09 deg/d
Q 2.519088150098578 2.9538e-08 au
  Orbit Determination Parameters
   # obs. used (total)      89  
   data-arc span      5219 days (14.29 yr)  
   first obs. used      2004-10-13  
   last obs. used      2019-01-27  
   planetary ephem.      DE431  
   SB-pert. ephem.      SB431-N16  
   condition code      0  
   norm. resid. RMS      .69197  
   source      ORB  
   producer      Otto Matic  
   solution date      2019-Jul-14 06:57:43  

Additional Information
 Earth MOID = .937018 au 
 Jupiter MOID = 2.75768 au 
 T_jup = 3.628 
[ hide covariance matrix ]
Orbital Elements at Epoch 2456805.5 (2014-May-28.0) TDB
Reference: JPL 12 (heliocentric ecliptic J2000)
 Element Value Uncertainty (1-sigma)   Units 
e .1276085187751492 9.6057e-08  
q 1.948803406429706 2.2142e-07 au
tp 2456742.142813876647
(2014-Mar-25.64281388)
0.00015943 TDB
node 142.8455635255797 0.00038983 deg
peri 180.9253746555465 0.00039288 deg
i 1.3211747335833 1.0696e-05 deg
  Orbit Determination Parameters
   # obs. used (total)      89  
   data-arc span      5219 days (14.29 yr)  
   first obs. used      2004-10-13  
   last obs. used      2019-01-27  
   planetary ephem.      DE431  
   SB-pert. ephem.      SB431-N16  
   condition code      0  
   norm. resid. RMS      .69197  
   source      ORB  
   producer      Otto Matic  
   solution date      2019-Jul-14 06:57:43  

Additional Information
 Jupiter MOID = 2.75768 au 
 T_jup = 3.628 
Orbit Covariance (6×6)
  e q tp node peri i
e 9.226961923275524E-15 -2.11622770333648E-14 8.946685603040877E-12 2.50163759732098E-13 2.644968709953378E-12 5.238384658080896E-15
q -2.11622770333648E-14 4.902830013907548E-14 -2.231394283528516E-11 -5.804060145473925E-13 -6.605110672788795E-12 -1.19595405079305E-14
tp 8.946685603040877E-12 -2.231394283528516E-11 2.541658323487167E-8 3.014631857198995E-10 7.862816316743459E-9 6.806189210664384E-12
node 2.50163759732098E-13 -5.804060145473925E-13 3.014631857198995E-10 1.519710819793916E-7 -1.518322596018416E-7 2.474309097053627E-9
peri 2.644968709953378E-12 -6.605110672788795E-12 7.862816316743459E-9 -1.518322596018416E-7 1.543508314803584E-7 -2.471421016500023E-9
i 5.238384658080896E-15 -1.19595405079305E-14 6.806189210664384E-12 2.474309097053627E-9 -2.471421016500023E-9 1.143962362560834E-10

Ephemeris | Orbit Diagram | Orbital Elements | Mission Design | Physical Parameters | Discovery Circumstances ]

Physical Parameter Table
Parameter Symbol Value Units Sigma Reference Notes
absolute magnitude H 18.2   n/a MPO322076  

413757 (2006 DM103)          Discovered 2004-Oct-13 by Spacewatch at Kitt Peak
Reference: Last Updated: 2014-11-10

Alternate Designations
 2006 DM103 = 2014 QY408 
Ephemeris | Orbit Diagram | Orbital Elements | Mission Design | Physical Parameters | Discovery Circumstances ]
ABOUT SSD CREDITS/AWARDS PRIVACY/COPYRIGHT GLOSSARY LINKS
FirstGov 2020-Jul-11 23:39 UT
(server date/time)  
NASA Home Page
Site Manager:   Ryan S. Park
Webmaster  Alan B. Chamberlin